SOCASBEG

Guest
Details From SOCA - Cayenne Rochambeau
To SBEG - Eduardo Gomes
Flight Number -
Tags decoded
Created
Modified
Stats Distance 776 nm / 1,438 km
Max Altitude 0 ft / 0 m
Waypoints 3
Social Downloads 0
Likes 0
Share VATSIM

Download

Looking for another format? Having issues loading an existing format? Contact us
Advertisement - Login to hide

Notes

Requested: SOCA SBSN SBEG

Route

SOCA SBSN SBEG

ID Type Via Altitude Latitude Longitude Leg Dist Tot Dist Heading (true) Name
O SOCA APT - 0 ft / 0 m 4.81981˚ -52.36045˚ - 0 nm - Cayenne Rochambeau
SBSN APT - 0 ft / 0 m -2.42243˚ -54.79279˚ 458 nm 458 nm 199° / 199° SANTAREM
O SBEG APT - 0 ft / 0 m -3.03861˚ -60.04972˚ 317 nm 776 nm 263° / 263° Eduardo Gomes

Altitude Profile

Advertisement - Login to hide

Weather


0- 5 10 15 20 25 30 35+ Temperature / ° C

Clouds and Precipitation
Forecast for 2018-05-27 18:00 UTC. Updated 44 minutes ago

Ground ~20,000 ft ~40,000 ft Winds

SOCA

Details ICAO SOCA (CAY)
Name Cayenne Rochambeau
Region French Guiana
Timezone America/Cayenne (UTC-3.0)
Stats Elevation 26 ft / 8 m (AMSL)
Location 4.819807° -52.360446°
Runways 1
Magnetic Variation 18.398° W

METAR

SOCA 271800Z AUTO 07014KT 9999 BKN024 OVC031 30/24 Q1012 NOSIG

Decode

TAF

TAF SOCA 271600Z 2718/2818 07010KT 9999 SCT023 BKN030 BECMG 2723/2724 VRB03KT TEMPO 2803/2812 4000 SHRA SCT012TCU BKN016 FM281400 06014KT 9999 SCT020 BKN040

Decode

Departure Runways

ID Width Length Bearing (true) Bearing (mag) Surface Threshold Offset Overrun Length
08 148 ft / 45 m 10,489 ft / 3,197 m 65.20° 83.60° Asphalt 0 ft / 0 m 244 ft / 74 m
26 148 ft / 45 m 10,489 ft / 3,197 m 245.20° 263.60° Asphalt 0 ft / 0 m 0 ft / 0 m

SBEG

Details ICAO SBEG (MAO)
Name Eduardo Gomes
Region Brazil
Timezone America/Manaus (UTC-4.0)
Stats Elevation 264 ft / 80 m (AMSL)
Location -3.038611° -60.049723°
Runways 1
Magnetic Variation 15.815° W

METAR

SBEG 271800Z 14004KT 9999 VCSH SCT020 FEW025TCU 31/24 Q1011

Decode

TAF

TAF SBEG 271000Z 2712/2812 06002KT 9999 SCT015 TX30/27178Z TN24/2807Z BECMG 2715/2717 06005KT SCT020 FEW025TCU PROB30 TEMPO 2718/2720 8000 TSRA SCT020 FEW025CB BECMG 2722/2724 00000KT FEW015 RMK PCQ

Decode

Destination Runways

ID Width Length Bearing (true) Bearing (mag) Surface Threshold Offset Overrun Length
10 148 ft / 45 m 8,867 ft / 2,703 m 90.13° 105.94° Asphalt 0 ft / 0 m 215 ft / 66 m
28 148 ft / 45 m 8,867 ft / 2,703 m 270.13° 285.94° Asphalt 0 ft / 0 m 250 ft / 76 m

Approach Navaids

Runway Type Ident Frequency Range Bearing (true) Bearing (mag) Slope Elevation
10 Localiser IEG 110.30 MHz 18 nm / 33 km 90.55° 106.37° - 275 ft / 84 m (AMSL)
10 Glidescope IEG 110.30 MHz 10 nm / 19 km 90.13° 105.95° 3.04° 275 ft / 84 m (AMSL)
10 DME IEG 110.30 MHz 18 nm / 33 km - - - 264 ft / 80 m (AMSL)

Popular Alternatives